Flag for U.S.A. Weather past 2 weeks in Peoria, Illinois, U.S.A.

Now
58 °F

Clear.


Feels Like: 55 °F
Forecast: 58 / 68 °F
Wind: 13 mph from East

Location: Greater Peoria Regional Airport

Current Time: Apr 19, 2015 at 5:29:17 AM

Latest Report: Apr 19, 2015 at 4:54 AM


Visibility: 10 mi

Pressure: 29.77 "Hg

Humidity: 62%

Dew point: 45 °F

Location of PeoriaLocation

Historic Weather in Peoria — Graph

°F

Peoria temperature yesterday

Maximum temperature yesterday: 81 °F (at 3:54 PM)
Minimum temperature yesterday: 59 °F (at 5:54 AM)
Average temperature yesterday: 70 °F

Past Weeks' High & Low Weather Summary

 TemperatureHumidityPressure
High81 °F (Apr 17, 5:54 PM)93% (Apr 7, 6:01 AM)30.36 "Hg (Apr 7, 6:01 AM)
Low27 °F (Apr 4, 6:54 AM)16% (Apr 5, 4:54 PM)29.47 "Hg (Apr 9, 6:54 PM)
Average60 °F55%30.02 "Hg
* Reported Apr 4 3:54 AM — Apr 19 3:54 AM, Peoria, Weather by CustomWeather, © 2015

Note: Actual official high and low records may vary slightly from our data, if they occured in-between our weather recording intervals... More about our weather records

Advertising

Peoria weather history for previous 24 hours

 ConditionsComfort  
Time TempWeatherWind HumidityBarometerVisibility
3:54 AM
Sun, Apr 19
58 °FClear.12 mph58%29.80 "Hg10 mi
2:54 AM58 °FPassing clouds.12 mph58%29.82 "Hg10 mi
1:54 AM58 °FPassing clouds.13 mph58%29.84 "Hg10 mi
12:54 AM60 °FPassing clouds.12 mph60%29.86 "Hg10 mi
11:54 PM
Sat, Apr 18
63 °FClear.12 mph56%29.86 "Hg10 mi
10:54 PM65 °FClear.9 mph59%29.88 "Hg10 mi
9:54 PM69 °FClear.8 mph45%29.90 "Hg10 mi
8:54 PM72 °FClear.7 mph40%29.91 "Hg10 mi
7:54 PM75 °FSunny.7 mph34%29.90 "Hg10 mi
6:54 PM77 °FScattered clouds.9 mph32%29.89 "Hg10 mi
5:54 PM79 °FPartly sunny.9 mph32%29.88 "Hg10 mi
4:54 PM81 °FPartly sunny.7 mph33%29.89 "Hg10 mi
3:54 PM81 °FSunny.9 mph32%29.91 "Hg10 mi
2:54 PM80 °FSunny.14 mph35%29.93 "Hg10 mi
1:54 PM79 °FScattered clouds.12 mph41%29.96 "Hg10 mi
12:54 PM78 °FPassing clouds.12 mph45%29.98 "Hg10 mi
11:54 AM76 °FPartly sunny.6 mph52%30.01 "Hg10 mi
10:54 AM73 °FPartly sunny.6 mph57%30.01 "Hg8 mi
9:54 AM71 °FSunny.3 mph61%30.00 "Hg10 mi
8:54 AM69 °FSunny.No wind63%30.01 "Hg9 mi
7:54 AM64 °FSunny.No wind75%30.01 "Hg6 mi
6:54 AM60 °FClear.3 mph75%30.01 "Hg7 mi
5:54 AM59 °FClear.3 mph78%30.00 "Hg8 mi
Weather by CustomWeather, © 2015

See weather overviewHow to use our weather pages